Location: Clarion
(42.7316°N, 93.7330°W)
Time: 08:47:17
(UTC+00:00)

Cosmos 1758 - Pass Details

Date: 22 April 2026
Orbit: 475 x 497 km, 82.5° (Epoch: 16 May)

Event Time Altitude Azimuth Distance (km) Brightness Sun altitude
Rises 10:17:54 0° 351° (N) 2,554 7.0 -11.7°
Reaches altitude 10° 10:20:01 10° 351° (N) 1,666 6.0 -11.3°
Maximum altitude 10:23:40 88° 268° (W) 485 3.0 -10.8°
Drops below altitude 10° 10:27:15 10° 174° (S) 1,642 5.5 -10.2°
Sets 10:29:19 0° 174° (S) 2,513 6.5 -9.8°
